Tracking 25711 objects as of 22-May-2022
HD Live streaming from Space Station
objects crossing your sky now

BREEZE-M R/B

Track BREEZE-M R/B now!


NORAD ID: 38980
Int'l Code: 2012-061D
Perigee: 29,718.5 km
Apogee: 35,648.3 km
Inclination: 6.5 °
Period: 1,280.2 minutes
Semi major axis: 39054 km
RCS: 0.003 m2 (small)
Launch date: November 2, 2012
Source: Commonwealth of Independent States (former USSR) (CIS)
Launch site: TYURATAM MISSILE AND SPACE COMPLEX (TTMTR)

Note: This is a ROCKET BODY
aabbcc
Your satellite tracking list
Your tracking list is empty




NASA's NSSDC Master Catalog

Two Line Element Set (TLE):
1 38980U 12061D   22141.51444587 -.00000107  00000-0  00000+0 0  9994
2 38980   6.5218  52.6022 0759177  86.1390 282.3226  1.12485806 38924
Source of the keplerian elements: AFSPC